Location: Arroyo de Valdeoliva
(40.1604°N, 4.9878°W)
Time: 16:40:24
(UTC+00:00)

Cosmos 2098 Rocket - Visible Passes

Search period start: 14 March 2026 00:00
Search period end: 24 March 2026 00:00
Orbit: 348 x 853 km, 82.9° (Epoch: 14 March)

Date Brightness Start Highest point End Pass type
(mag) Time Alt. Az. Time Alt. Az. Time Alt. Az.
14 Mar 4.4 05:12:31 10° SSE 05:15:11 29° E 05:18:09 10° NNE visible
15 Mar 2.9 05:23:28 10° S 05:26:28 58° E 05:29:52 10° NNE visible
16 Mar 2.2 05:34:43 10° SSW 05:37:48 69° W 05:41:21 10° N visible
17 Mar 3.0 05:46:15 10° SW 05:49:12 36° WNW 05:52:35 10° N visible
18 Mar 5.4 04:21:17 10° SE 04:23:27 17° E 04:25:48 10° NE visible
19 Mar 4.5 04:31:37 10° SSE 04:34:30 29° E 04:37:48 10° NNE visible
20 Mar 3.2 04:42:55 14° SSE 04:45:36 54° E 04:49:24 10° NNE visible
21 Mar 2.4 04:54:38 22° SSW 04:56:46 80° W 05:00:45 10° N visible
22 Mar 2.9 05:06:12 24° SW 05:08:00 44° WNW 05:11:55 10° N visible
23 Mar 5.3 03:40:55 15° ESE 03:42:11 17° E 03:44:52 10° NE visible
23 Mar 3.7 05:17:41 19° WSW 05:19:18 26° WNW 05:22:49 10° NNW visible
